Starlink 30196

operational
NORAD ID: 57448 Int'l Des: 2023-105 Owner: SPXS Country: US Constellation: starlink
LEOCIRCULAR

Starlink 30196について

説明を読み込み中...

リアルタイム位置

3D地球を読み込み中...

次回通過

高度履歴

Altitude vs Time

uPlot chart will show altitude changes over time

軌道要素

1 57448U 23105U 25351.05813883 .00003984 00000-0 30990-3 0 9999
2 57448 43.0051 350.3845 0001238 264.8558 95.2143 15.02529951132978
Epoch: Dec 17, 2025 • Age: 14 hours

現在のステータス

高度 561.8 km
速度 7.58 km/s
衛星直下点 -15.59°S, 127.77°W
打ち上げ日 Jul 24, 2023
運用期間 2.4 years
タイプ internet

技術仕様

分類 Payload
質量 730.00 kg
乾燥質量 700.00 kg
総質量 730.00 kg
長さ 0.30 m
直径 4.10 m
スパン 29.00 m
形状 Box + pan
製造者 SPXS
バスタイプ Starlink V2M
フェーズステータス In Orbit
所有者/国 SPXS/US

大規模コンステレーション

Loading constellations...